�N����,����,�~����,�C��,���x,�C��,����,���ϕ���,�ő�u�ԕ���,�ő厞����,���˗�,�I�_���x,�n�����x,�ő啗���N��,DTYPE
"23/07/23","00:10",0.0,25.0,85.0,1010.7,304.4,0.7,1.1,344.2,0.00,22.3,25.4,"00:02:56",1
"23/07/23","00:20",0.0,25.0,85.3,1010.9,311.5,0.8,1.8,319.7,0.00,22.4,25.1,"00:13:28",1
"23/07/23","00:30",0.0,25.1,85.2,1010.7,314.5,0.7,1.3,344.5,0.00,22.5,25.2,"00:20:24",1
"23/07/23","00:40",0.0,25.2,85.2,1010.7,323.9,0.7,1.1,336.2,0.00,22.6,25.1,"00:31:04",1
"23/07/23","00:50",0.0,25.0,85.3,1010.7,282.7,0.7,1.3,280.0,0.00,22.4,25.0,"00:46:48",1
"23/07/23","01:00",0.0,24.9,85.3,1010.4,318.6,0.8,1.7,337.0,0.00,22.3,25.0,"00:59:44",1
"23/07/23","01:10",0.0,24.9,85.4,1010.4,334.0,1.2,2.4,335.7,0.00,22.3,25.2,"01:08:08",1
"23/07/23","01:20",0.0,24.8,85.5,1010.9,347.5,0.7,1.3,1.4,0.00,22.2,25.1,"01:10:16",1
"23/07/23","01:30",0.0,24.6,85.9,1010.7,300.3,0.8,2.1,334.3,0.00,22.1,25.0,"01:28:16",1
"23/07/23","01:40",0.0,24.5,86.3,1010.4,313.5,0.8,1.4,333.8,0.00,22.1,25.0,"01:32:56",1
"23/07/23","01:50",0.0,24.4,86.5,1010.9,316.1,0.7,1.0,323.8,0.00,22.0,24.9,"01:40:56",1
"23/07/23","02:00",0.0,24.2,87.0,1010.4,300.0,0.7,1.1,264.9,0.00,21.9,25.0,"01:57:44",1
"23/07/23","02:10",0.0,24.3,87.4,1010.2,323.5,1.2,1.7,322.9,0.00,22.1,24.8,"02:00:16",1
"23/07/23","02:20",0.0,24.4,87.6,1010.7,321.4,0.6,1.2,305.7,0.00,22.2,25.0,"02:10:08",1
"23/07/23","02:30",0.0,24.5,87.8,1010.9,300.1,0.6,1.1,327.2,0.00,22.4,25.0,"02:27:28",1
"23/07/23","02:40",0.0,24.6,87.8,1010.7,315.7,0.7,1.1,325.2,0.00,22.5,24.8,"02:31:36",1
"23/07/23","02:50",0.0,24.7,87.9,1010.7,307.9,0.7,1.4,332.1,0.00,22.6,24.7,"02:46:00",1
"23/07/23","03:00",0.0,24.7,87.8,1010.7,316.2,1.0,1.6,314.1,0.00,22.6,24.9,"02:56:48",1
"23/07/23","03:10",0.0,24.8,87.7,1010.9,333.8,0.6,1.1,335.7,0.00,22.7,24.8,"03:02:08",1
"23/07/23","03:20",0.0,24.9,87.7,1010.7,293.9,0.6,1.3,258.3,0.00,22.8,24.7,"03:13:52",1
"23/07/23","03:30",0.0,24.9,87.7,1010.7,342.9,0.8,1.3,358.7,0.00,22.8,24.7,"03:22:40",1
"23/07/23","03:40",0.0,25.0,87.7,1010.9,341.3,0.7,1.3,352.7,0.00,22.9,24.7,"03:36:00",1
"23/07/23","03:50",0.0,25.1,87.9,1010.7,312.5,1.0,1.3,338.3,0.00,23.0,24.7,"03:41:36",1
"23/07/23","04:00",0.0,24.9,88.1,1010.4,310.7,1.0,1.8,318.2,0.00,22.8,24.6,"03:57:20",1
"23/07/23","04:10",0.0,24.9,88.1,1010.7,290.6,0.8,1.6,326.1,0.00,22.8,24.7,"04:00:32",1
"23/07/23","04:20",0.0,25.0,88.0,1010.4,294.5,0.7,1.3,335.8,0.00,22.9,24.6,"04:13:20",1
"23/07/23","04:30",0.0,25.1,87.8,1010.9,262.8,0.8,1.4,245.4,0.00,23.0,24.7,"04:27:52",1
"23/07/23","04:40",0.0,25.1,87.7,1010.4,320.2,0.2,0.5,294.6,0.00,23.0,24.7,"04:30:08",1
"23/07/23","04:50",0.0,25.2,87.6,1011.2,330.8,0.7,1.2,333.6,0.00,23.0,24.6,"04:43:52",1
"23/07/23","05:00",0.0,25.2,87.7,1011.2,327.1,0.6,1.4,322.6,0.00,23.1,24.5,"04:53:36",1
"23/07/23","05:10",0.0,25.2,87.5,1010.9,338.2,0.3,1.4,66.0,0.00,23.0,24.6,"05:06:24",1
"23/07/23","05:20",0.0,25.3,87.0,1010.9,45.3,0.5,1.4,77.5,0.00,23.0,24.5,"05:18:48",1
"23/07/23","05:30",0.0,25.5,86.3,1010.9,58.9,0.5,1.2,68.9,0.00,23.1,24.7,"05:24:00",1
"23/07/23","05:40",0.0,25.7,85.8,1010.7,15.4,0.3,1.1,331.4,0.00,23.2,24.6,"05:30:56",1
"23/07/23","05:50",0.0,25.6,85.0,1010.7,334.3,0.2,1.0,115.9,0.01,22.9,24.5,"05:47:52",1
"23/07/23","06:00",0.0,25.6,83.9,1010.9,67.2,0.6,1.9,106.6,0.01,22.7,24.6,"05:56:32",1
"23/07/23","06:10",0.0,26.3,82.9,1010.7,16.5,0.3,1.2,61.5,0.03,23.2,24.6,"06:01:20",1
"23/07/23","06:20",0.0,26.9,81.6,1010.7,106.0,0.6,1.7,13.3,0.05,23.5,24.6,"06:19:28",1
"23/07/23","06:30",0.0,27.5,79.7,1010.7,17.5,0.5,1.4,358.0,0.07,23.7,24.5,"06:22:08",1
"23/07/23","06:40",0.0,27.9,77.3,1010.4,56.3,0.5,1.7,96.6,0.08,23.6,24.5,"06:36:56",1
"23/07/23","06:50",0.0,28.4,74.6,1010.4,41.5,0.5,1.3,80.5,0.10,23.5,24.6,"06:44:56",1
"23/07/23","07:00",0.0,28.6,72.3,1010.2,94.3,0.6,1.8,115.0,0.11,23.2,24.7,"06:51:44",1
"23/07/23","07:10",0.0,28.7,71.5,1010.2,98.4,0.8,1.9,107.6,0.13,23.1,24.5,"07:08:56",1
"23/07/23","07:20",0.0,28.9,70.2,1010.0,21.3,0.8,2.6,11.7,0.14,23.0,24.5,"07:10:32",1
"23/07/23","07:30",0.0,29.3,70.3,1010.2,122.4,0.7,1.7,102.5,0.18,23.4,24.4,"07:23:28",1
"23/07/23","07:40",0.0,29.7,68.5,1010.7,104.1,0.6,1.9,118.3,0.21,23.3,24.6,"07:38:48",1
"23/07/23","07:50",0.0,30.2,65.7,1010.9,119.2,0.6,1.8,36.2,0.23,23.1,24.5,"07:40:40",1
"23/07/23","08:00",0.0,30.5,64.6,1011.2,101.5,0.8,1.9,2.5,0.27,23.1,24.5,"07:51:04",1
"23/07/23","08:10",0.0,30.4,64.6,1011.9,163.6,1.0,2.5,190.5,0.29,23.0,24.7,"08:06:08",1
"23/07/23","08:20",0.0,29.4,67.2,1011.6,176.0,1.5,2.9,180.1,0.22,22.7,24.6,"08:11:36",1
"23/07/23","08:30",0.0,29.0,67.5,1011.2,200.9,1.2,2.9,213.6,0.18,22.4,24.6,"08:27:04",1
"23/07/23","08:40",0.0,28.8,68.8,1011.4,188.9,1.3,3.7,202.2,0.16,22.5,24.5,"08:35:36",1
"23/07/23","08:50",0.0,28.8,68.8,1010.7,156.2,1.1,2.8,129.9,0.16,22.5,24.8,"08:40:08",1
"23/07/23","09:00",0.0,30.1,68.3,1010.7,114.9,0.7,2.5,115.9,0.32,23.7,24.7,"08:59:52",1
"23/07/23","09:10",0.0,31.3,63.7,1011.4,108.5,1.0,2.5,107.5,0.42,23.6,24.7,"09:07:44",1
"23/07/23","09:20",0.0,31.3,62.5,1011.4,124.2,0.7,1.6,135.7,0.32,23.3,24.8,"09:12:24",1
"23/07/23","09:30",0.0,31.6,62.5,1011.6,165.1,1.1,2.1,179.9,0.45,23.6,24.7,"09:26:48",1
"23/07/23","09:40",0.0,31.3,60.9,1012.1,166.0,1.3,3.6,200.0,0.43,22.9,24.9,"09:39:28",1
"23/07/23","09:50",0.0,31.3,63.2,1011.9,157.6,1.0,2.4,192.9,0.42,23.5,24.9,"09:46:48",1
"23/07/23","10:00",0.0,31.9,61.6,1011.6,94.4,1.2,3.2,113.6,0.49,23.6,24.8,"09:54:00",1
"23/07/23","10:10",0.0,32.2,61.7,1011.9,158.0,1.2,2.7,130.7,0.52,24.0,25.0,"10:04:08",1
"23/07/23","10:20",0.0,32.3,59.4,1011.4,183.6,1.1,3.5,222.8,0.49,23.4,24.9,"10:19:04",1
"23/07/23","10:30",0.0,32.5,62.8,1011.6,210.4,1.0,3.4,170.6,0.52,24.5,25.2,"10:27:36",1
"23/07/23","10:40",0.0,32.3,60.3,1011.4,182.7,1.7,4.5,203.0,0.54,23.7,25.3,"10:31:44",1
"23/07/23","10:50",0.0,32.9,58.5,1011.6,164.2,1.5,3.6,206.4,0.57,23.7,25.4,"10:47:20",1
"23/07/23","11:00",0.0,33.2,58.9,1011.2,174.7,1.5,3.4,143.5,0.58,24.1,25.3,"10:52:32",1
"23/07/23","11:10",0.0,32.8,58.3,1011.2,153.5,0.7,1.7,141.9,0.24,23.6,25.4,"11:02:48",1
"23/07/23","11:20",0.0,33.2,57.5,1011.4,121.8,1.1,3.1,127.8,0.53,23.7,25.6,"11:16:24",1
"23/07/23","11:30",0.0,33.6,56.0,1010.9,170.1,2.0,3.6,147.9,0.62,23.6,25.8,"11:25:12",1
"23/07/23","11:40",0.0,33.0,57.3,1010.7,161.3,1.3,3.2,122.8,0.37,23.5,25.9,"11:30:24",1
"23/07/23","11:50",0.0,33.3,57.0,1010.4,173.8,1.8,4.1,187.4,0.46,23.7,25.8,"11:46:32",1
"23/07/23","12:00",0.0,33.9,53.2,1010.4,205.5,2.0,4.7,227.7,0.61,23.1,25.8,"11:55:12",1
"23/07/23","12:10",0.0,33.8,51.3,1010.4,199.3,2.1,4.4,226.0,0.57,22.4,25.9,"12:09:20",1
"23/07/23","12:20",0.0,33.9,53.9,1010.4,236.5,1.5,3.4,219.7,0.59,23.3,25.7,"12:10:32",1
"23/07/23","12:30",0.0,33.4,56.5,1010.4,155.8,1.7,4.3,150.1,0.39,23.6,25.9,"12:23:12",1
"23/07/23","12:40",0.0,33.1,54.3,1010.0,179.6,1.5,3.5,141.4,0.35,22.7,26.1,"12:30:40",1
"23/07/23","12:50",0.0,33.7,55.7,1010.0,216.1,1.0,2.0,170.9,0.36,23.7,26.3,"12:43:04",1
"23/07/23","13:00",0.0,33.8,54.9,1009.7,134.9,1.1,3.3,131.3,0.39,23.5,26.2,"12:55:36",1
"23/07/23","13:10",0.0,34.6,52.2,1009.5,119.8,1.1,2.8,122.0,0.47,23.4,26.1,"13:06:32",1
"23/07/23","13:20",0.0,33.4,53.8,1009.5,162.9,1.3,3.5,133.6,0.18,22.8,26.1,"13:16:08",1
"23/07/23","13:30",0.0,33.2,54.4,1009.3,162.5,1.1,3.2,155.7,0.19,22.8,26.3,"13:23:44",1
"23/07/23","13:40",0.0,34.6,53.9,1008.8,123.9,1.2,5.5,203.6,0.45,23.9,26.3,"13:38:32",1
"23/07/23","13:50",0.0,35.4,51.6,1009.3,156.9,1.5,3.3,212.8,0.52,23.9,26.3,"13:41:44",1
"23/07/23","14:00",0.0,35.2,50.5,1009.5,193.9,1.1,2.8,177.4,0.39,23.4,26.3,"13:57:36",1
"23/07/23","14:10",0.0,35.1,49.7,1009.5,221.3,2.0,3.5,214.5,0.47,23.1,26.7,"14:02:40",1
"23/07/23","14:20",0.0,34.8,48.4,1009.3,218.6,2.8,4.7,242.8,0.44,22.3,26.4,"14:18:40",1
"23/07/23","14:30",0.0,35.2,49.9,1009.0,216.8,2.3,4.7,235.3,0.45,23.2,26.6,"14:21:44",1
"23/07/23","14:40",0.0,34.8,48.3,1008.8,217.0,2.1,4.3,218.0,0.38,22.3,26.3,"14:37:04",1
"23/07/23","14:50",0.0,34.3,51.3,1008.3,194.7,1.6,3.3,204.4,0.27,22.8,26.4,"14:47:28",1
"23/07/23","15:00",0.0,35.2,48.1,1008.8,163.7,1.2,2.9,136.9,0.40,22.6,26.5,"14:57:28",1
"23/07/23","15:10",0.0,35.9,47.7,1008.6,163.6,1.0,2.5,231.9,0.37,23.1,26.7,"15:00:16",1
"23/07/23","15:20",0.0,35.8,48.8,1008.8,230.2,1.7,4.4,225.9,0.36,23.4,26.6,"15:13:12",1
"23/07/23","15:30",0.0,35.6,48.6,1008.3,226.4,2.0,4.3,244.0,0.36,23.1,26.7,"15:26:32",1
"23/07/23","15:40",0.0,35.5,49.7,1008.6,195.7,2.0,4.2,214.0,0.34,23.4,26.7,"15:34:40",1
"23/07/23","15:50",0.0,35.4,46.1,1008.3,222.4,1.6,3.7,221.4,0.33,22.1,26.6,"15:45:20",1
"23/07/23","16:00",0.0,34.6,49.0,1008.1,216.7,2.0,3.5,203.7,0.21,22.4,26.8,"15:53:44",1
"23/07/23","16:10",0.0,33.9,49.5,1008.1,217.9,1.5,4.0,236.7,0.08,21.9,26.7,"16:04:40",1
"23/07/23","16:20",0.0,34.4,49.1,1007.6,251.0,1.2,2.6,234.3,0.21,22.2,26.6,"16:15:52",1
"23/07/23","16:30",0.0,35.0,48.7,1007.8,256.5,1.2,3.1,234.1,0.24,22.6,26.8,"16:21:44",1
"23/07/23","16:40",0.0,34.8,50.7,1007.6,296.2,1.2,3.6,345.0,0.19,23.1,26.8,"16:35:36",1
"23/07/23","16:50",0.0,34.7,50.9,1007.4,301.4,1.2,3.5,183.0,0.19,23.1,26.8,"16:40:08",1
"23/07/23","17:00",0.0,33.9,53.5,1007.6,302.3,0.8,2.4,323.3,0.09,23.2,26.8,"16:51:12",1
"23/07/23","17:10",0.0,34.0,54.6,1007.6,318.0,1.2,2.8,350.2,0.15,23.6,26.7,"17:02:32",1
"23/07/23","17:20",0.0,33.7,55.2,1007.4,297.7,1.0,2.5,354.0,0.08,23.5,26.6,"17:13:20",1
"23/07/23","17:30",0.0,33.3,56.8,1007.4,336.7,1.6,2.8,336.1,0.05,23.6,26.7,"17:24:16",1
"23/07/23","17:40",0.0,33.1,57.3,1007.1,328.2,1.5,2.5,341.2,0.05,23.6,26.8,"17:32:16",1
"23/07/23","17:50",0.0,33.1,57.1,1007.1,260.9,1.2,2.8,231.5,0.04,23.5,26.7,"17:44:08",1
"23/07/23","18:00",0.0,32.8,56.9,1007.1,326.6,1.3,2.8,327.3,0.03,23.2,26.6,"17:50:02",1
"23/07/23","18:10",0.0,32.5,57.4,1007.1,284.8,1.5,3.4,320.1,0.02,23.0,26.6,"18:01:36",1
"23/07/23","18:20",0.0,32.1,58.4,1006.9,273.6,1.2,2.8,236.5,0.01,22.9,26.7,"18:16:40",1
"23/07/23","18:30",0.0,31.6,59.1,1006.7,256.1,1.5,4.7,236.0,0.01,22.7,26.4,"18:29:52",1
"23/07/23","18:40",0.0,30.9,60.6,1007.1,230.1,1.7,4.1,222.6,0.00,22.4,26.5,"18:37:36",1
"23/07/23","18:50",0.0,30.4,62.0,1006.7,207.9,1.5,3.6,199.0,0.00,22.3,26.4,"18:40:16",1
"23/07/23","19:00",0.0,30.1,62.8,1006.4,232.7,1.2,2.8,238.6,0.00,22.3,26.5,"18:59:20",1
"23/07/23","19:10",0.0,29.8,63.4,1006.4,269.2,1.5,3.4,301.3,0.00,22.1,26.5,"19:06:16",1
"23/07/23","19:20",0.0,29.5,63.7,1006.4,315.3,1.2,3.5,240.7,0.00,21.9,26.5,"19:10:48",1
"23/07/23","19:30",0.0,29.4,64.9,1006.0,348.1,1.3,2.4,351.7,0.00,22.1,26.4,"19:22:32",1
"23/07/23","19:40",0.0,29.1,65.8,1006.7,306.8,0.6,1.9,1.1,0.00,22.1,26.3,"19:30:16",1
"23/07/23","19:50",0.0,28.7,66.9,1006.9,330.6,1.0,2.1,334.9,0.00,22.0,26.2,"19:42:40",1
"23/07/23","20:00",0.0,28.5,67.3,1006.9,318.7,1.2,2.5,352.8,0.00,21.9,26.5,"19:50:48",1
"23/07/23","20:10",0.0,28.4,67.5,1007.1,314.1,1.3,2.9,310.3,0.00,21.8,26.3,"20:02:00",1
"23/07/23","20:20",0.0,28.2,68.3,1007.4,304.1,1.0,2.0,341.3,0.00,21.8,26.2,"20:13:36",1
"23/07/23","20:30",0.0,28.0,68.8,1007.8,300.9,1.2,2.5,352.1,0.00,21.8,26.1,"20:21:20",1
"23/07/23","20:40",0.0,28.1,69.2,1007.8,299.3,1.0,2.5,313.6,0.00,22.0,26.2,"20:32:32",1
"23/07/23","20:50",0.0,28.0,69.6,1008.3,305.7,1.1,3.9,322.4,0.00,22.0,26.2,"20:49:36",1
"23/07/23","21:00",0.0,28.0,69.8,1008.3,315.1,1.5,4.1,335.8,0.00,22.0,25.9,"20:51:52",1
"23/07/23","21:10",0.0,27.9,70.4,1008.3,300.2,1.2,3.5,343.3,0.00,22.1,26.0,"21:08:56",1
"23/07/23","21:20",0.0,27.8,70.8,1008.3,298.1,1.1,2.8,275.5,0.00,22.1,26.0,"21:15:20",1
"23/07/23","21:30",0.0,28.0,70.6,1008.6,297.4,1.3,3.2,321.8,0.00,22.2,26.0,"21:27:36",1
"23/07/23","21:40",0.0,27.9,70.7,1008.8,294.9,1.2,3.3,350.7,0.00,22.1,25.9,"21:33:36",1
"23/07/23","21:50",0.0,27.9,70.9,1008.3,316.1,1.6,3.2,348.7,0.00,22.2,25.9,"21:42:32",1
"23/07/23","22:00",0.0,27.8,71.4,1008.6,317.2,1.3,3.3,330.5,0.00,22.2,25.8,"21:52:32",1
"23/07/23","22:10",0.0,27.8,71.6,1008.3,309.5,1.2,2.9,356.7,0.00,22.2,26.0,"22:00:16",1
"23/07/23","22:20",0.0,27.8,71.6,1008.6,324.5,1.5,3.1,331.3,0.00,22.2,25.7,"22:14:56",1
"23/07/23","22:30",0.0,27.8,72.2,1008.8,332.4,1.5,2.6,345.9,0.00,22.4,25.8,"22:21:04",1
"23/07/23","22:40",0.0,27.7,72.4,1008.6,331.1,1.2,2.0,299.2,0.00,22.3,25.8,"22:30:40",1
"23/07/23","22:50",0.0,27.5,73.2,1008.1,330.1,1.3,2.4,339.1,0.00,22.3,25.8,"22:46:56",1
"23/07/23","23:00",0.0,27.4,73.4,1008.3,331.0,1.6,2.8,322.8,0.00,22.3,25.9,"22:52:08",1
"23/07/23","23:10",0.0,27.2,73.8,1008.3,329.4,1.2,2.1,348.8,0.00,22.2,25.7,"23:04:56",1
"23/07/23","23:20",0.0,27.2,74.8,1008.1,344.0,1.0,1.7,341.5,0.00,22.4,25.7,"23:10:08",1
"23/07/23","23:30",0.0,26.9,75.8,1008.1,330.0,0.7,1.2,346.5,0.00,22.3,25.6,"23:20:08",1
"23/07/23","23:40",0.0,26.4,76.7,1008.3,268.3,0.3,0.8,321.2,0.00,22.0,25.7,"23:37:44",1
"23/07/23","23:50",0.0,26.1,77.6,1007.8,294.7,0.5,0.6,272.5,0.00,21.9,25.7,"23:44:16",1
"23/07/23","24:00",0.0,26.2,78.7,1008.1,336.9,0.8,1.9,326.7,0.00,22.2,25.5,"23:53:36",1
